Weather in Pervomajsk

Ukraine / Mykolaiv District     48°02′43″N   30°50′57″E
temp.,
°C
wind,
m/s
gust,
m/s
humid.,
%
clouds,
%
prec.,
mm/h
press.,
hPa
HPBL,
m
10 may, mon
mon1000:00+7sse11675 0.0 102610
03:00+6s11695 0.0 102610
06:00+6e11735 0.0 102710
09:00+12ese11560 0.0 1027392
12:00+16nne22420 0.0 10261815
15:00+18n23373 0.0 10241978
18:00+17nne44402 0.0 10231842
21:00+11ne48610 0.0 1024133
11 may, tue
tue1100:00+8ne34700 0.0 102351
03:00+7n34720 0.0 102360
06:00+6nnw4975100 0.0 1021162
09:00+11n696095 0.0 1020521
12:00+14n5863100 0.0 1019643
15:00+20n67555 0.0 10171263
18:00+19nne686582 0.4 10161204
21:00+14ne398786 0.7 1016332
12 may, wed
wed1200:00+12ene488973 0.0 1016400
03:00+7ne37870 0.0 1015149
06:00+6ne410945 0.0 1016310
09:00+10ne677233 0.0 1015909
12:00+13ene555998 0.2 10141550
15:00+13ne3454100 0.2 10131433
18:00+13ene2358100 0.0 1013943
21:00+10ese227018 0.0 101218
13 may, thu
thu1300:00+7sse33754 0.0 101229
03:00+7ese338071 0.0 101226
06:00+9ese3572100 0.0 1011170
09:00+11ese4870100 0.1 1011369
12:00+16se6858100 0.1 10101039
15:00+19sse695997 0.2 10081703
18:00+19sse486598 0.8 1007464
21:00+14sse227496 0.9 100728
14 may, fri
fri1400:00+10sse3578100 0.0 100877
03:00+9s3483100 0.0 100853
06:00+10s228778 0.0 100816
09:00+16s347110 0.0 1008456
12:00+21s4559100 0.0 10091209
15:00+22s4653100 1.1 10081816
18:00+19s3670100 2.3 1008401
21:00+15s478698 3.5 1009111